{"data":{"norad_id":69919,"intl_designator":"2026-156BC","name":"GRUS-3D","alt_names":[],"object_type":"PAYLOAD","status":"ACTIVE","operator":null,"country":"JPN","launch_date":"2026-07-07","launch_site_code":"AFWTR","launch_vehicle":null,"mission":null,"orbit_class":"UNKNOWN","rcs_meters":null,"size_class":null,"mass_kg":null,"dimensions":null,"purposes":[],"wikipedia_slug":null,"has_3d_model":false,"image_url":null,"decayed_at":null,"tle_current":{"epoch":"2026-09-19T10:53:40.046208Z","epoch_age_seconds":108200,"freshness":"FRESH","line1":"1 69919U 26156BC  26262.45393572  .00000634  00000+0  68130-4 0  9994","line2":"2 69919  97.7436 161.6658 0005577 268.1990  91.8590 14.91962022 11059","mean_motion":14.91962022,"eccentricity":0.0005577,"inclination_deg":97.7436,"raan_deg":161.6658,"arg_perigee_deg":268.199,"mean_anomaly_deg":91.859,"bstar":6.813e-5,"rev_number":1105,"period_min":96.517202098057,"perigee_km":587.93120293925,"apogee_km":595.70549113333,"semimajor_km":6969.9553470363,"source":"CELESTRAK","updated_at":"2026-09-20T09:00:25.181741Z"}}}